| time (UTC) | temp C | wind direction | speed KPH | gust KPH | rain 1hr cm | rain 24hr cm | rain mn cm | humidity % | barometer mb |
| 20260506113704 | 17 | 11 | 1.6 | 3.2 | 0.00 | 1.27 | 1.27 | 87 | 1003.6 |
| 20260506111704 | 17 | 11 | 3.2 | 8.0 | 0.08 | 1.27 | 1.27 | 91 | 1004.1 |
| 20260506111205 | 17 | 11 | 3.2 | 4.8 | 0.08 | 1.27 | 1.27 | 92 | 1004.1 |
| 20260506110204 | 17 | 11 | 1.6 | 8.0 | 0.10 | 1.27 | 1.27 | 92 | 1004.1 |
| 20260506104205 | 16 | 10 | 3.2 | 4.8 | 0.20 | 1.27 | 1.27 | 94 | 1004.1 |
| 20260506103704 | 16 | 11 | 1.6 | 4.8 | 0.20 | 1.27 | 1.27 | 94 | 1003.9 |
| 20260506103204 | 16 | 11 | 1.6 | 4.8 | 0.18 | 1.24 | 1.24 | 92 | 1003.9 |
| 20260506101704 | 16 | 11 | 0.0 | 0.0 | 0.13 | 1.19 | 1.19 | 92 | 1003.9 |
| 20260506100705 | 16 | 11 | 0.0 | 0.0 | 0.13 | 1.19 | 1.19 | 92 | 1003.9 |
| 20260506093705 | 16 | 11 | 0.0 | 3.2 | 0.00 | 1.07 | 1.07 | 93 | 1003.7 |
| 20260506091204 | 16 | 11 | 0.0 | 3.2 | 0.00 | 1.07 | 1.07 | 94 | 1003.5 |
| 20260506090204 | 16 | 11 | 1.6 | 4.8 | 0.00 | 1.07 | 1.07 | 96 | 1003.5 |
| 20260506083704 | 15 | 5 | 0.0 | 4.8 | 0.00 | 1.12 | 1.07 | 96 | 1003.3 |
| 20260506081204 | 15 | 5 | 3.2 | 4.8 | 0.00 | 1.37 | 1.07 | 98 | 1003.4 |
| 20260506080704 | 15 | 5 | 1.6 | 4.8 | 0.00 | 1.45 | 1.07 | 98 | 1003.4 |
| 20260506070704 | 13 | 5 | 0.0 | 1.6 | 0.03 | 2.57 | 1.07 | 99 | 1004.2 |
| 20260506070204 | 13 | 5 | 0.0 | 9.7 | 0.03 | 2.62 | 1.07 | 99 | 1004.2 |
| 20260506061704 | 13 | 5 | 0.0 | 0.0 | 0.13 | 3.05 | 1.07 | 98 | 1004.2 |
| 20260506061204 | 12 | 5 | 0.0 | 1.6 | 0.13 | 3.05 | 1.04 | 98 | 1004.2 |
| 20260506050704 | 12 | 5 | 0.0 | 3.2 | 0.23 | 3.28 | 0.91 | 97 | 1004.7 |
| 20260506044704 | 12 | 5 | 0.0 | 1.6 | 0.28 | 3.28 | 0.91 | 97 | 1004.7 |
| 20260506044204 | 12 | 5 | 0.0 | 0.0 | 0.25 | 3.25 | 0.89 | 97 | 1004.7 |
| 20260506043703 | 12 | 5 | 0.0 | 1.6 | 0.25 | 3.25 | 0.89 | 97 | 1004.7 |
| 20260506040704 | 12 | 5 | 0.0 | 0.0 | 0.08 | 3.07 | 0.69 | 97 | 1004.5 |
| 20260506040204 | 12 | 5 | 0.0 | 0.0 | 0.05 | 3.05 | 0.66 | 97 | 1004.5 |
| 20260506034705 | 12 | 5 | 0.0 | 0.0 | 0.03 | 3.05 | 0.64 | 97 | 1004.5 |
| 20260506034204 | 12 | 5 | 0.0 | 0.0 | 0.03 | 3.05 | 0.64 | 97 | 1004.5 |
| 20260506033204 | 12 | 5 | 0.0 | 0.0 | 0.05 | 3.07 | 0.64 | 97 | 1004.6 |
| 20260506030204 | 12 | 5 | 0.0 | 1.6 | 0.15 | 3.05 | 0.61 | 97 | 1004.6 |
| 20260506024704 | 12 | 5 | 0.0 | 1.6 | 0.20 | 3.05 | 0.61 | 97 | 1004.6 |
| 20260506023204 | 13 | 5 | 0.0 | 0.0 | 0.23 | 3.02 | 0.58 | 97 | 1004.6 |
| 20260506021204 | 13 | 5 | 0.0 | 4.8 | 0.18 | 2.97 | 0.53 | 96 | 1004.9 |
| 20260506020204 | 13 | 5 | 0.0 | 1.6 | 0.10 | 2.90 | 0.46 | 96 | 1004.9 |
| 20260506013704 | 13 | 5 | 0.0 | 3.2 | 0.25 | 2.82 | 0.38 | 96 | 1005.5 |
| 20260506013204 | 13 | 5 | 0.0 | 4.8 | 0.23 | 2.79 | 0.36 | 96 | 1005.5 |
| 20260506010704 | 13 | 5 | 0.0 | 0.0 | 0.36 | 2.79 | 0.36 | 96 | 1006.3 |
| 20260506004704 | 13 | 5 | 3.2 | 4.8 | 0.18 | 2.62 | 0.18 | 96 | 1006.3 |
| 20260506003204 | 14 | 5 | 0.0 | 0.0 | 0.13 | 2.57 | 0.13 | 96 | 1006.3 |
| 20260506000704 | 14 | 5 | 0.0 | 0.0 | 0.00 | 2.44 | 0.00 | 96 | 1006.4 |
| 20260506000205 | 14 | 5 | 0.0 | 11.3 | 0.00 | 2.44 | 0.00 | 96 | 1006.4 |
| 20260505234704 | 13 | 5 | 0.0 | 1.6 | 0.00 | 2.44 | 0.00 | 96 | 1006.4 |
| 20260505234204 | 13 | 5 | 0.0 | 1.6 | 0.00 | 2.44 | 0.00 | 96 | 1006.4 |
| 20260505224703 | 14 | 5 | 0.0 | 0.0 | 0.00 | 2.44 | 0.00 | 95 | 1006.9 |
| 20260505223704 | 14 | 5 | 0.0 | 0.0 | 0.00 | 2.44 | 0.00 | 95 | 1006.9 |
| 20260505221704 | 14 | 5 | 1.6 | 4.8 | 0.00 | 2.44 | 0.00 | 95 | 1007.0 |
| 20260505220704 | 14 | 5 | 0.0 | 4.8 | 0.00 | 2.44 | 0.00 | 95 | 1007.0 |
| 20260505214204 | 14 | 5 | 0.0 | 0.0 | 0.00 | 2.44 | 2.44 | 94 | 1007.3 |
| 20260505211204 | 14 | 5 | 0.0 | 4.8 | 0.00 | 2.44 | 2.44 | 93 | 1007.5 |
| 20260505210704 | 14 | 5 | 0.0 | 4.8 | 0.00 | 2.44 | 2.44 | 93 | 1007.4 |
| 20260505210204 | 15 | 5 | 1.6 | 4.8 | 0.00 | 2.44 | 2.44 | 93 | 1007.4 |
| 20260505204203 | 15 | 5 | 0.0 | 3.2 | 0.00 | 2.44 | 2.44 | 92 | 1007.4 |
| 20260505203703 | 15 | 5 | 0.0 | 0.0 | 0.00 | 2.44 | 2.44 | 92 | 1007.4 |
| 20260505201704 | 15 | 5 | 1.6 | 4.8 | 0.00 | 2.44 | 2.44 | 92 | 1007.4 |
| 20260505194703 | 15 | 11 | 0.0 | 4.8 | 0.00 | 2.44 | 2.44 | 91 | 1007.4 |
| 20260505193703 | 16 | 11 | 0.0 | 4.8 | 0.00 | 2.44 | 2.44 | 91 | 1007.0 |
| 20260505191203 | 16 | 11 | 0.0 | 0.0 | 0.00 | 2.44 | 2.44 | 88 | 1007.0 |
| 20260505190703 | 16 | 11 | 0.0 | 1.6 | 0.00 | 2.44 | 2.44 | 88 | 1006.8 |
| 20260505184704 | 16 | 11 | 0.0 | 0.0 | 0.00 | 2.44 | 2.44 | 87 | 1006.8 |
| 20260505184203 | 16 | 11 | 0.0 | 0.0 | 0.00 | 2.44 | 2.44 | 87 | 1006.8 |
| 20260505181704 | 17 | 11 | 0.0 | 0.0 | 0.00 | 2.44 | 2.44 | 85 | 1006.6 |
| 20260505181203 | 17 | 11 | 0.0 | 0.0 | 0.00 | 2.44 | 2.44 | 84 | 1006.6 |
| 20260505180205 | 17 | 11 | 0.0 | 0.0 | 0.00 | 2.44 | 2.44 | 84 | 1006.6 |
| 20260505174705 | 17 | 11 | 0.0 | 1.6 | 0.00 | 2.44 | 2.44 | 82 | 1006.5 |
| 20260505174205 | 17 | 11 | 0.0 | 4.8 | 0.00 | 2.44 | 2.44 | 82 | 1006.4 |
| 20260505173705 | 17 | 11 | 0.0 | 0.0 | 0.00 | 2.44 | 2.44 | 82 | 1006.4 |
| 20260505171705 | 17 | 11 | 1.6 | 4.8 | 0.00 | 2.44 | 2.44 | 82 | 1006.4 |
| 20260505171205 | 17 | 11 | 3.2 | 4.8 | 0.00 | 2.44 | 2.44 | 82 | 1006.4 |
| 20260505164705 | 18 | 11 | 3.2 | 4.8 | 0.00 | 2.44 | 2.44 | 81 | 1006.4 |
| 20260505164205 | 18 | 11 | 0.0 | 3.2 | 0.00 | 2.44 | 2.44 | 80 | 1006.4 |
| 20260505163205 | 18 | 11 | 0.0 | 4.8 | 0.00 | 2.44 | 2.44 | 79 | 1006.4 |
| 20260505161205 | 18 | 11 | 3.2 | 9.7 | 0.00 | 2.44 | 2.44 | 79 | 1006.4 |
| 20260505160204 | 18 | 11 | 1.6 | 4.8 | 0.00 | 2.44 | 2.44 | 77 | 1006.4 |
| 20260505153205 | 17 | 11 | 0.0 | 4.8 | 0.00 | 2.44 | 2.44 | 81 | 1006.8 |
| 20260505151205 | 17 | 11 | 0.0 | 4.8 | 0.00 | 2.44 | 2.44 | 84 | 1006.8 |
| 20260505150205 | 17 | 9 | 1.6 | 4.8 | 0.00 | 2.44 | 2.44 | 85 | 1006.8 |
| 20260505130205 | 15 | 5 | 1.6 | 4.8 | 0.00 | 2.44 | 2.44 | 93 | 1007.3 |
| 20260505124705 | 15 | 5 | 1.6 | 4.8 | 0.00 | 2.44 | 2.44 | 95 | 1007.3 |
| 20260505124205 | 15 | 5 | 1.6 | 4.8 | 0.00 | 2.44 | 2.44 | 96 | 1007.3 |
| 20260505123205 | 15 | 5 | 1.6 | 4.8 | 0.00 | 2.44 | 2.44 | 96 | 1007.6 |
| 20260505121705 | 15 | 5 | 1.6 | 4.8 | 0.00 | 2.44 | 2.44 | 97 | 1007.6 |
| 20260505120704 | 15 | 5 | 0.0 | 3.2 | 0.00 | 2.44 | 2.44 | 98 | 1007.6 |
| 20260505114705 | 13 | 5 | 1.6 | 4.8 | 0.00 | 2.44 | 2.44 | 98 | 1007.9 |